Погода в Борисовке

Россия / Липецкая область     52°50′24″N   39°59′00″E
темп.,
°C
ветер,
м/с
пор.,
м/с
влажн.,
%
обл.,
%
осадки,
мм/ч
давл.,
гПа
погр.,
м
21 апреля, ср
ср2100:00+5св3896100 5.0 1004454
03:00+5ю1398100 6.7 1003144
06:00+6юз3699100 4.9 1003283
09:00+5з2494100 6.1 1006326
12:00+4з3695100 0.4 1009401
15:00+7зюз5879100 0.5 1011858
18:00+8юз2581100 0.0 1013264
21:00+7ююз358896 0.0 1015147
22 апреля, чт
чт2200:00+6ю499416 0.3 1015358
03:00+4юз5109254 0.4 1017361
06:00+5юз478897 0.0 1018364
09:00+8юз45724 0.0 1020660
12:00+12юз46575 0.0 10201367
15:00+13ююз465799 0.1 10201379
18:00+13ююз476219 0.0 1020347
21:00+10ю387171 0.0 1021148
23 апреля, пт
пт2300:00+9ююз3374100 0.0 102151
03:00+8ю357974 0.0 102089
06:00+8ю368294 0.0 1021105
09:00+13ю476592 0.0 1021415
12:00+17ю5741100 0.0 10192511
15:00+15ю475792 0.9 1019669
18:00+14юв47635 0.8 1017268
21:00+10юв497911 0.8 1016170
24 апреля, сб
сб2400:00+9ююв410855 0.0 1015207
03:00+8ююв5118999 0.0 1012235
06:00+8ююв4108782 0.1 1011272
09:00+11ююз5978100 0.4 1010738
12:00+4зсз81294100 2.0 1011503
15:00+8зсз5869100 3.4 10111192
18:00+9з59578 0.8 1011881
21:00+5зюз49720 0.9 1013259
25 апреля, вс
вс2500:00+4зюз410790 0.0 1013293
03:00+3зюз39835 0.0 1013272
06:00+2юз398519 0.0 1013324
09:00+6зюз57666 0.0 10131115
12:00+9зюз5750100 0.6 10131935
15:00+9зюз674885 1.7 10131812
18:00+8зюз685774 0.8 1013893
21:00+5юз497470 0.9 1015236